Time,TemperatureF,DewpointF,PressureIn,WindDirection,WindDirectionDegrees,WindSpeedMPH,WindSpeedGustMPH,Humidity,HourlyPrecipIn,Conditions,Clouds,dailyrainin,SolarRadiationWatts/m^2,SoftwareType,DateUTC
2013-03-03 00:01:00,34.0,33.0,-100.00,SE,139,0.0,2.0,97,0.00,,,0.14,1.000000,,2013-03-03 08:01:00,
2013-03-03 00:10:00,31.0,30.0,-100.00,NE,54,0.0,3.0,97,0.00,,,0.14,1.000000,,2013-03-03 08:10:00,
2013-03-03 00:32:00,31.0,30.0,-100.00,NE,54,0.0,3.0,97,0.00,,,0.14,1.000000,,2013-03-03 08:32:00,
2013-03-03 00:42:00,31.0,30.0,-100.00,NE,54,0.0,3.0,97,0.00,,,0.14,1.000000,,2013-03-03 08:42:00,
2013-03-03 00:54:00,31.0,30.0,-100.00,NE,54,0.0,3.0,97,0.00,,,0.14,1.000000,,2013-03-03 08:54:00,
2013-03-03 01:01:00,31.0,30.0,-100.00,NE,54,0.0,3.0,97,0.00,,,0.14,1.000000,,2013-03-03 09:01:00,
2013-03-03 01:10:00,31.0,30.0,-100.00,West,259,0.0,2.0,97,0.00,,,0.14,1.000000,,2013-03-03 09:10:00,
2013-03-03 01:32:00,31.0,30.0,-100.00,West,259,0.0,2.0,97,0.00,,,0.14,1.000000,,2013-03-03 09:32:00,
2013-03-03 01:42:00,31.0,30.0,-100.00,West,259,0.0,2.0,97,0.00,,,0.14,1.000000,,2013-03-03 09:42:00,
2013-03-03 01:52:00,31.0,30.0,-100.00,West,259,0.0,2.0,97,0.00,,,0.14,1.000000,,2013-03-03 09:52:00,
2013-03-03 02:01:00,31.0,30.0,-100.00,West,259,0.0,2.0,97,0.00,,,0.14,1.000000,,2013-03-03 10:01:00,
2013-03-03 02:10:00,30.0,29.0,-100.00,North,10,0.0,0.0,97,0.00,,,0.14,1.000000,,2013-03-03 10:10:00,
2013-03-03 02:32:00,30.0,29.0,-100.00,North,10,0.0,0.0,97,0.00,,,0.14,1.000000,,2013-03-03 10:32:00,
2013-03-03 02:42:00,30.0,29.0,-100.00,North,10,0.0,0.0,97,0.00,,,0.14,1.000000,,2013-03-03 10:42:00,
2013-03-03 02:52:00,30.0,29.0,-100.00,North,10,0.0,0.0,97,0.00,,,0.14,1.000000,,2013-03-03 10:52:00,
2013-03-03 03:01:00,30.0,29.0,-100.00,North,10,0.0,0.0,97,0.00,,,0.14,1.000000,,2013-03-03 11:01:00,
2013-03-03 03:10:00,29.0,28.0,-100.00,ESE,117,0.0,0.0,97,0.00,,,0.14,1.000000,,2013-03-03 11:10:00,
2013-03-03 03:32:00,29.0,28.0,-100.00,ESE,117,0.0,0.0,97,0.00,,,0.14,1.000000,,2013-03-03 11:32:00,
2013-03-03 03:42:00,29.0,28.0,-100.00,ESE,117,0.0,0.0,97,0.00,,,0.14,1.000000,,2013-03-03 11:42:00,
2013-03-03 03:52:00,29.0,28.0,-100.00,ESE,117,0.0,0.0,97,0.00,,,0.14,1.000000,,2013-03-03 11:52:00,
2013-03-03 04:01:00,29.0,28.0,-100.00,ESE,117,0.0,0.0,97,0.00,,,0.14,1.000000,,2013-03-03 12:01:00,
2013-03-03 04:10:00,29.0,28.0,-100.00,NNE,28,0.0,0.0,97,0.00,,,0.14,1.000000,,2013-03-03 12:10:00,
2013-03-03 04:32:00,29.0,28.0,-100.00,NNE,28,0.0,0.0,97,0.00,,,0.14,1.000000,,2013-03-03 12:32:00,
2013-03-03 04:43:00,29.0,28.0,-100.00,NNE,28,0.0,0.0,97,0.00,,,0.14,1.000000,,2013-03-03 12:43:00,
2013-03-03 04:52:00,29.0,28.0,-100.00,NNE,28,0.0,0.0,97,0.00,,,0.14,1.000000,,2013-03-03 12:52:00,
2013-03-03 05:01:00,29.0,28.0,-100.00,NNE,28,0.0,0.0,97,0.00,,,0.14,1.000000,,2013-03-03 13:01:00,
2013-03-03 05:10:00,30.0,29.0,-100.00,East,88,0.0,0.0,97,0.00,,,0.14,1.000000,,2013-03-03 13:10:00,
2013-03-03 05:42:00,30.0,29.0,-100.00,East,88,0.0,0.0,97,0.00,,,0.14,1.000000,,2013-03-03 13:42:00,
2013-03-03 05:52:00,30.0,29.0,-100.00,East,88,0.0,0.0,97,0.00,,,0.14,1.000000,,2013-03-03 13:52:00,
2013-03-03 06:01:00,30.0,29.0,-100.00,East,88,0.0,0.0,97,0.00,,,0.14,1.000000,,2013-03-03 14:01:00,
2013-03-03 06:10:00,31.0,30.0,-100.00,ESE,121,0.0,0.0,97,0.00,,,0.14,1.000000,,2013-03-03 14:10:00,
2013-03-03 06:32:00,31.0,30.0,-100.00,ESE,121,0.0,0.0,97,0.00,,,0.14,1.000000,,2013-03-03 14:32:00,
2013-03-03 06:42:00,31.0,30.0,-100.00,ESE,121,0.0,0.0,97,0.00,,,0.14,1.000000,,2013-03-03 14:42:00,
2013-03-03 06:52:00,31.0,30.0,-100.00,ESE,121,0.0,0.0,97,0.00,,,0.14,1.000000,,2013-03-03 14:52:00,
2013-03-03 07:01:00,31.0,30.0,-100.00,ESE,121,0.0,0.0,97,0.00,,,0.14,1.000000,,2013-03-03 15:01:00,
2013-03-03 07:10:00,32.0,31.0,-100.00,SSE,157,0.0,0.0,97,0.00,,,0.14,3.000000,,2013-03-03 15:10:00,
2013-03-03 07:32:00,32.0,31.0,-100.00,SSE,157,0.0,0.0,97,0.00,,,0.14,3.000000,,2013-03-03 15:32:00,
2013-03-03 07:42:00,32.0,31.0,-100.00,SSE,157,0.0,0.0,97,0.00,,,0.14,3.000000,,2013-03-03 15:42:00,
2013-03-03 07:52:00,32.0,31.0,-100.00,SSE,157,0.0,0.0,97,0.00,,,0.14,3.000000,,2013-03-03 15:52:00,
2013-03-03 08:01:00,32.0,31.0,-100.00,SSE,157,0.0,0.0,97,0.00,,,0.14,3.000000,,2013-03-03 16:01:00,
2013-03-03 08:10:00,32.0,31.0,-100.00,West,273,0.0,1.0,97,0.00,,,0.14,27.000000,,2013-03-03 16:10:00,
2013-03-03 08:32:00,32.0,31.0,-100.00,West,273,0.0,1.0,97,0.00,,,0.14,27.000000,,2013-03-03 16:32:00,
2013-03-03 08:42:00,32.0,31.0,-100.00,West,273,0.0,1.0,97,0.00,,,0.14,27.000000,,2013-03-03 16:42:00,
2013-03-03 08:52:00,32.0,31.0,-100.00,West,273,0.0,1.0,97,0.00,,,0.14,27.000000,,2013-03-03 16:52:00,
2013-03-03 09:01:00,32.0,31.0,-100.00,West,273,0.0,1.0,97,0.00,,,0.14,27.000000,,2013-03-03 17:01:00,
2013-03-03 09:10:00,34.0,33.0,-100.00,South,187,1.0,3.0,97,0.00,,,0.14,75.000000,,2013-03-03 17:10:00,
2013-03-03 09:42:00,34.0,33.0,-100.00,South,187,1.0,3.0,97,0.00,,,0.14,75.000000,,2013-03-03 17:42:00,
2013-03-03 09:52:00,34.0,33.0,-100.00,South,187,1.0,3.0,97,0.00,,,0.14,75.000000,,2013-03-03 17:52:00,
2013-03-03 10:01:00,34.0,33.0,-100.00,South,187,1.0,3.0,97,0.00,,,0.14,75.000000,,2013-03-03 18:01:00,
2013-03-03 10:10:00,38.0,34.0,-100.00,SW,218,1.0,4.0,85,0.00,,,0.14,180.000000,,2013-03-03 18:10:00,
2013-03-03 10:32:00,38.0,34.0,-100.00,SW,218,1.0,4.0,85,0.00,,,0.14,180.000000,,2013-03-03 18:32:00,
2013-03-03 10:42:00,38.0,34.0,-100.00,SW,218,1.0,4.0,85,0.00,,,0.14,180.000000,,2013-03-03 18:42:00,
2013-03-03 10:52:00,38.0,34.0,-100.00,SW,218,1.0,4.0,85,0.00,,,0.14,180.000000,,2013-03-03 18:52:00,
2013-03-03 11:01:00,38.0,34.0,-100.00,SW,218,1.0,4.0,85,0.00,,,0.14,180.000000,,2013-03-03 19:01:00,
2013-03-03 11:10:00,40.0,32.0,-100.00,West,262,1.0,5.0,73,0.00,,,0.14,293.000000,,2013-03-03 19:10:00,
2013-03-03 11:42:00,40.0,32.0,-100.00,West,262,1.0,5.0,73,0.00,,,0.14,293.000000,,2013-03-03 19:42:00,
2013-03-03 11:52:00,40.0,32.0,-100.00,West,262,1.0,5.0,73,0.00,,,0.14,293.000000,,2013-03-03 19:52:00,
2013-03-03 12:01:00,40.0,32.0,-100.00,West,262,1.0,5.0,73,0.00,,,0.14,293.000000,,2013-03-03 20:01:00,
2013-03-03 12:10:00,42.0,29.0,-100.00,SW,222,2.0,6.0,60,0.00,,,0.14,362.000000,,2013-03-03 20:10:00,
2013-03-03 12:32:00,42.0,29.0,-100.00,SW,222,2.0,6.0,60,0.00,,,0.14,362.000000,,2013-03-03 20:32:00,
2013-03-03 12:42:00,42.0,29.0,-100.00,SW,222,2.0,6.0,60,0.00,,,0.14,362.000000,,2013-03-03 20:42:00,
2013-03-03 12:52:00,42.0,29.0,-100.00,SW,222,2.0,6.0,60,0.00,,,0.14,362.000000,,2013-03-03 20:52:00,
2013-03-03 13:01:00,42.0,29.0,-100.00,SW,222,2.0,6.0,60,0.00,,,0.14,362.000000,,2013-03-03 21:01:00,
2013-03-03 13:10:00,45.0,30.0,-100.00,East,79,1.0,8.0,55,0.00,,,0.14,469.000000,,2013-03-03 21:10:00,
2013-03-03 13:32:00,45.0,30.0,-100.00,East,79,1.0,8.0,55,0.00,,,0.14,469.000000,,2013-03-03 21:32:00,
2013-03-03 13:42:00,45.0,30.0,-100.00,East,79,1.0,8.0,55,0.00,,,0.14,469.000000,,2013-03-03 21:42:00,
2013-03-03 13:52:00,45.0,30.0,-100.00,East,79,1.0,8.0,55,0.00,,,0.14,469.000000,,2013-03-03 21:52:00,
2013-03-03 14:01:00,45.0,30.0,-100.00,East,79,1.0,8.0,55,0.00,,,0.14,469.000000,,2013-03-03 22:01:00,
2013-03-03 14:10:00,45.0,27.0,-100.00,WSW,247,1.0,9.0,50,0.00,,,0.14,529.000000,,2013-03-03 22:10:00,
2013-03-03 14:32:00,45.0,27.0,-100.00,WSW,247,1.0,9.0,50,0.00,,,0.14,529.000000,,2013-03-03 22:32:00,
2013-03-03 14:42:00,45.0,27.0,-100.00,WSW,247,1.0,9.0,50,0.00,,,0.14,529.000000,,2013-03-03 22:42:00,
2013-03-03 14:52:00,45.0,27.0,-100.00,WSW,247,1.0,9.0,50,0.00,,,0.14,529.000000,,2013-03-03 22:52:00,
2013-03-03 15:01:00,45.0,27.0,-100.00,WSW,247,1.0,9.0,50,0.00,,,0.14,529.000000,,2013-03-03 23:01:00,
2013-03-03 15:10:00,46.0,25.0,-100.00,West,267,3.0,8.0,44,0.00,,,0.14,414.000000,,2013-03-03 23:10:00,
2013-03-03 15:32:00,46.0,25.0,-100.00,West,267,3.0,8.0,44,0.00,,,0.14,414.000000,,2013-03-03 23:32:00,
2013-03-03 15:42:00,46.0,25.0,-100.00,West,267,3.0,8.0,44,0.00,,,0.14,414.000000,,2013-03-03 23:42:00,
2013-03-03 15:52:00,46.0,25.0,-100.00,West,267,3.0,8.0,44,0.00,,,0.14,414.000000,,2013-03-03 23:52:00,
2013-03-03 16:01:00,46.0,25.0,-100.00,West,267,3.0,8.0,44,0.00,,,0.14,414.000000,,2013-03-04 00:01:00,
2013-03-03 16:10:00,46.0,25.0,-100.00,North,351,2.0,7.0,44,0.00,,,0.14,342.000000,,2013-03-04 00:10:00,
2013-03-03 16:32:00,46.0,25.0,-100.00,North,351,2.0,7.0,44,0.00,,,0.14,342.000000,,2013-03-04 00:32:00,
2013-03-03 16:42:00,46.0,25.0,-100.00,North,351,2.0,7.0,44,0.00,,,0.14,342.000000,,2013-03-04 00:42:00,
2013-03-03 16:52:00,46.0,25.0,-100.00,North,351,2.0,7.0,44,0.00,,,0.14,342.000000,,2013-03-04 00:52:00,
2013-03-03 17:01:00,46.0,25.0,-100.00,North,351,2.0,7.0,44,0.00,,,0.14,342.000000,,2013-03-04 01:01:00,
2013-03-03 17:10:00,41.0,29.0,-100.00,West,280,0.0,6.0,61,0.00,,,0.06,112.000000,,2013-03-04 01:10:00,
2013-03-03 17:32:00,41.0,29.0,-100.00,West,280,0.0,6.0,61,0.00,,,0.06,112.000000,,2013-03-04 01:32:00,
2013-03-03 17:42:00,41.0,29.0,-100.00,West,280,0.0,6.0,61,0.00,,,0.06,112.000000,,2013-03-04 01:42:00,
2013-03-03 17:52:00,41.0,29.0,-100.00,West,280,0.0,6.0,61,0.00,,,0.06,112.000000,,2013-03-04 01:52:00,
2013-03-03 18:01:00,41.0,29.0,-100.00,West,280,0.0,6.0,61,0.00,,,0.06,112.000000,,2013-03-04 02:01:00,
2013-03-03 18:10:00,36.0,29.0,-100.00,ESE,106,0.0,2.0,76,0.00,,,0.05,15.000000,,2013-03-04 02:10:00,
2013-03-03 18:42:00,36.0,29.0,-100.00,ESE,106,0.0,2.0,76,0.00,,,0.05,15.000000,,2013-03-04 02:42:00,
2013-03-03 18:52:00,36.0,29.0,-100.00,ESE,106,0.0,2.0,76,0.00,,,0.05,15.000000,,2013-03-04 02:52:00,
2013-03-03 19:01:00,36.0,29.0,-100.00,ESE,106,0.0,2.0,76,0.00,,,0.05,15.000000,,2013-03-04 03:01:00,
2013-03-03 19:10:00,32.0,30.0,-100.00,NNE,16,0.0,1.0,91,0.00,,,0.01,1.000000,,2013-03-04 03:10:00,
2013-03-03 19:32:00,32.0,30.0,-100.00,NNE,16,0.0,1.0,91,0.00,,,0.01,1.000000,,2013-03-04 03:32:00,
2013-03-03 19:42:00,32.0,30.0,-100.00,NNE,16,0.0,1.0,91,0.00,,,0.01,1.000000,,2013-03-04 03:42:00,
2013-03-03 19:52:00,32.0,30.0,-100.00,NNE,16,0.0,1.0,91,0.00,,,0.01,1.000000,,2013-03-04 03:52:00,
2013-03-03 20:01:00,32.0,30.0,-100.00,NNE,16,0.0,1.0,91,0.00,,,0.01,1.000000,,2013-03-04 04:01:00,
2013-03-03 20:10:00,29.0,27.0,-100.00,ENE,74,0.0,2.0,94,0.00,,,0.00,1.000000,,2013-03-04 04:10:00,
2013-03-03 20:32:00,29.0,27.0,-100.00,ENE,74,0.0,2.0,94,0.00,,,0.00,1.000000,,2013-03-04 04:32:00,
2013-03-03 20:42:00,29.0,27.0,-100.00,ENE,74,0.0,2.0,94,0.00,,,0.00,1.000000,,2013-03-04 04:42:00,
2013-03-03 20:52:00,29.0,27.0,-100.00,ENE,74,0.0,2.0,94,0.00,,,0.00,1.000000,,2013-03-04 04:52:00,
2013-03-03 21:01:00,29.0,27.0,-100.00,ENE,74,0.0,2.0,94,0.00,,,0.00,1.000000,,2013-03-04 05:01:00,
2013-03-03 21:10:00,30.0,28.0,-100.00,NNE,20,0.0,2.0,94,0.00,,,0.00,1.000000,,2013-03-04 05:10:00,
2013-03-03 21:32:00,30.0,28.0,-100.00,NNE,20,0.0,2.0,94,0.00,,,0.00,1.000000,,2013-03-04 05:32:00,
2013-03-03 21:43:00,30.0,28.0,-100.00,NNE,20,0.0,2.0,94,0.00,,,0.00,1.000000,,2013-03-04 05:43:00,
2013-03-03 21:52:00,30.0,28.0,-100.00,NNE,20,0.0,2.0,94,0.00,,,0.00,1.000000,,2013-03-04 05:52:00,
2013-03-03 22:01:00,30.0,28.0,-100.00,NNE,20,0.0,2.0,94,0.00,,,0.00,1.000000,,2013-03-04 06:01:00,
2013-03-03 22:10:00,29.0,28.0,-100.00,ESE,116,0.0,2.0,95,0.00,,,0.00,1.000000,,2013-03-04 06:10:00,
2013-03-03 22:32:00,29.0,28.0,-100.00,ESE,116,0.0,2.0,95,0.00,,,0.00,1.000000,,2013-03-04 06:32:00,
2013-03-03 22:42:00,29.0,28.0,-100.00,ESE,116,0.0,2.0,95,0.00,,,0.00,1.000000,,2013-03-04 06:42:00,
2013-03-03 22:52:00,29.0,28.0,-100.00,ESE,116,0.0,2.0,95,0.00,,,0.00,1.000000,,2013-03-04 06:52:00,
2013-03-03 23:01:00,29.0,28.0,-100.00,ESE,116,0.0,2.0,95,0.00,,,0.00,1.000000,,2013-03-04 07:01:00,
2013-03-03 23:10:00,28.0,27.0,-100.00,SE,126,0.0,3.0,95,0.00,,,0.00,1.000000,,2013-03-04 07:10:00,
2013-03-03 23:32:00,28.0,27.0,-100.00,SE,126,0.0,3.0,95,0.00,,,0.00,1.000000,,2013-03-04 07:32:00,
2013-03-03 23:42:00,28.0,27.0,-100.00,SE,126,0.0,3.0,95,0.00,,,0.00,1.000000,,2013-03-04 07:42:00,
2013-03-03 23:52:00,28.0,27.0,-100.00,SE,126,0.0,3.0,95,0.00,,,0.00,1.000000,,2013-03-04 07:52:00,